GW6728 Weather Reports


time (UTC)temp
C
wind
direction
speed
KPH
gust
KPH
rain 1hr
cm
rain 24hr
cm
rain mn
cm
humidity
%
barometer
mb
20260507164347 18 303 3.2 6.4 0.00 0.00 0.00 40 1010.9
20260507163846 17 123 4.8 12.9 0.00 0.00 0.00 37 1011.0
20260507163348 17 162 3.2 9.7 0.00 0.00 0.00 41 1011.0
20260507162846 17 300 1.6 4.8 0.00 0.00 0.00 39 1011.2
20260507162345 16 35 1.6 4.8 0.00 0.00 0.00 43 1011.2
20260507161846 16 194 3.2 6.4 0.00 0.00 0.00 41 1011.3
20260507161347 17 192 6.4 11.3 0.00 0.00 0.00 40 1011.3
20260507160846 17 116 3.2 11.3 0.00 0.00 0.00 37 1011.4
20260507160345 18 67 6.4 9.7 0.00 0.00 0.00 36 1011.4
20260507155848 18 82 6.4 9.7 0.00 0.00 0.00 39 1011.6
20260507155345 18 25 3.2 8.0 0.00 0.00 0.00 37 1011.6
20260507154846 17 226 1.6 8.0 0.00 0.00 0.00 40 1011.6
20260507154346 17 264 6.4 11.3 0.00 0.00 0.00 39 1011.8
20260507153848 17 272 4.8 11.3 0.00 0.00 0.00 40 1011.8
20260507153346 17 46 3.2 8.0 0.00 0.00 0.00 40 1011.8
20260507152848 17 6 1.6 4.8 0.00 0.00 0.00 41 1011.9
20260507152015 17 330 3.2 8.0 0.00 0.00 0.00 38 1012.1
20260507151520 17 312 8.0 12.9 0.00 0.00 0.00 38 1012.1
20260507151017 16 326 4.8 11.3 0.00 0.00 0.00 37 1012.1
20260507150514 16 325 4.8 11.3 0.00 0.00 0.00 37 1012.2
20260507150011 16 265 4.8 11.3 0.00 0.00 0.00 39 1012.3
20260507145512 16 306 4.8 9.7 0.00 0.00 0.00 39 1012.4
20260507145013 16 2 6.4 11.3 0.00 0.00 0.00 41 1012.4
20260507144512 16 101 0.0 4.8 0.00 0.00 0.00 41 1012.6
20260507144011 16 274 4.8 8.0 0.00 0.00 0.00 42 1012.6
20260507143514 16 252 3.2 8.0 0.00 0.00 0.00 45 1012.6
20260507143013 16 122 3.2 6.4 0.00 0.00 0.00 42 1012.7
20260507142512 16 296 1.6 4.8 0.00 0.00 0.00 43 1012.7
20260507142012 16 313 3.2 8.0 0.00 0.00 0.00 43 1012.9
20260507141515 15 296 3.2 11.3 0.00 0.00 0.00 44 1013.0
20260507141014 15 274 3.2 6.4 0.00 0.00 0.00 47 1013.1
20260507140511 14 16 1.6 4.8 0.00 0.00 0.00 47 1013.1
20260507140015 14 354 0.0 0.0 0.00 0.00 0.00 49 1013.1
20260507135514 14 180 3.2 4.8 0.00 0.00 0.00 48 1013.2
20260507135013 14 279 0.0 1.6 0.00 0.00 0.00 47 1013.3
20260507134511 13 89 1.6 4.8 0.00 0.00 0.00 47 1013.4
20260507134012 12 52 0.0 6.4 0.00 0.00 0.00 52 1013.5
20260507133512 12 339 0.0 3.2 0.00 0.00 0.00 56 1013.6
20260507133011 11 290 3.2 6.4 0.00 0.00 0.00 56 1013.7
20260507132513 12 258 4.8 6.4 0.00 0.00 0.00 56 1013.7
20260507132014 12 276 1.6 3.2 0.00 0.00 0.00 54 1013.7
20260507131517 12 0 0.0 0.0 0.00 0.00 0.00 55 1013.7
20260507131012 11 273 0.0 0.0 0.00 0.00 0.00 55 1013.7
20260507130515 11 250 1.6 3.2 0.00 0.00 0.00 57 1013.7
20260507130013 11 333 1.6 3.2 0.00 0.00 0.00 54 1013.8
20260507125513 11 0 0.0 0.0 0.00 0.00 0.00 55 1013.8
20260507125012 11 339 0.0 1.6 0.00 0.00 0.00 56 1013.8
20260507124512 11 328 1.6 3.2 0.00 0.00 0.00 58 1013.8
20260507124012 11 253 3.2 4.8 0.00 0.00 0.00 60 1013.7
20260507123511 11 319 0.0 1.6 0.00 0.00 0.00 57 1013.7
20260507123011 11 0 0.0 0.0 0.00 0.00 0.00 58 1013.7
20260507122512 11 0 0.0 0.0 0.00 0.00 0.00 61 1013.8
20260507122012 10 0 0.0 0.0 0.00 0.00 0.00 59 1013.7
20260507121512 10 341 3.2 3.2 0.00 0.00 0.00 58 1013.7
20260507121011 10 271 1.6 1.6 0.00 0.00 0.00 60 1013.6
20260507120512 10 0 0.0 0.0 0.00 0.00 0.00 60 1013.6
20260507120011 10 0 0.0 0.0 0.00 0.00 0.00 61 1013.6
20260507115514 10 329 0.0 1.6 0.00 0.00 0.00 61 1013.7
20260507115013 10 288 0.0 1.6 0.00 0.00 0.00 64 1013.7
20260507114513 10 0 0.0 0.0 0.00 0.00 0.00 63 1013.7
20260507114011 10 0 0.0 0.0 0.00 0.00 0.00 69 1013.7
20260507113512 9 0 0.0 0.0 0.00 0.00 0.00 69 1013.6
20260507113011 9 332 0.0 1.6 0.00 0.00 0.00 68 1013.6
20260507112512 9 232 0.0 1.6 0.00 0.00 0.00 74 1013.6
20260507112013 9 0 0.0 0.0 0.00 0.00 0.00 74 1013.6
20260507111512 8 0 0.0 0.0 0.00 0.00 0.00 78 1013.5
20260507111012 8 0 0.0 0.0 0.00 0.00 0.00 71 1013.4
20260507110512 8 286 1.6 3.2 0.00 0.00 0.00 73 1013.4
20260507110012 8 290 0.0 0.0 0.00 0.00 0.00 84 1013.4
20260507105512 8 0 0.0 0.0 0.00 0.00 0.00 84 1013.4
20260507105011 8 0 0.0 0.0 0.00 0.00 0.00 83 1013.2
20260507104512 8 0 0.0 0.0 0.00 0.00 0.00 86 1013.2
20260507104012 8 0 0.0 0.0 0.00 0.00 0.00 85 1013.0
20260507103512 8 0 0.0 0.0 0.00 0.00 0.00 84 1013.0
20260507103013 8 0 0.0 0.0 0.00 0.00 0.00 81 1012.9
20260507102511 8 0 0.0 0.0 0.00 0.00 0.00 81 1012.8
20260507102012 8 0 0.0 0.0 0.00 0.00 0.00 77 1012.8
20260507101511 8 0 0.0 0.0 0.00 0.00 0.00 83 1012.7
20260507101011 8 0 0.0 0.0 0.00 0.00 0.00 81 1012.7
20260507100511 8 275 0.0 1.6 0.00 0.00 0.00 78 1012.6
20260507100011 8 0 0.0 0.0 0.00 0.00 0.00 82 1012.7
20260507095511 8 0 0.0 0.0 0.00 0.00 0.00 83 1012.7
20260507095012 8 0 0.0 0.0 0.00 0.00 0.00 81 1012.7
20260507094512 8 0 0.0 0.0 0.00 0.00 0.00 82 1012.6
20260507094012 8 0 0.0 0.0 0.00 0.00 0.00 83 1012.6
20260507093511 8 0 0.0 0.0 0.00 0.00 0.00 82 1012.6
20260507093011 8 0 0.0 0.0 0.00 0.00 0.00 79 1012.7
20260507092511 8 0 0.0 0.0 0.00 0.00 0.00 82 1012.6
20260507092012 9 0 0.0 0.0 0.00 0.00 0.00 81 1012.6
20260507091512 9 0 0.0 0.0 0.00 0.00 0.00 83 1012.6
20260507091012 9 0 0.0 0.0 0.00 0.00 0.00 83 1012.6
20260507090512 9 0 0.0 0.0 0.00 0.00 0.00 83 1012.6
20260507090011 9 0 0.0 0.0 0.00 0.00 0.00 81 1012.6
20260507085512 9 0 0.0 0.0 0.00 0.00 0.00 82 1012.5
20260507085012 9 0 0.0 0.0 0.00 0.00 0.00 74 1012.4
20260507084512 9 0 0.0 0.0 0.00 0.00 0.00 76 1012.4
20260507084012 9 355 0.0 1.6 0.00 0.00 0.00 75 1012.3
20260507083513 9 0 0.0 0.0 0.00 0.00 0.00 81 1012.4
20260507083012 9 0 0.0 0.0 0.00 0.00 0.00 81 1012.4
20260507082512 9 0 0.0 0.0 0.00 0.00 0.00 81 1012.4
20260507082012 9 0 0.0 0.0 0.00 0.00 0.00 81 1012.4
20260507081512 10 0 0.0 0.0 0.00 0.00 0.00 80 1012.3
20260507081012 10 0 0.0 0.0 0.00 0.00 0.00 79 1012.3
20260507080513 10 0 0.0 0.0 0.00 0.00 0.00 76 1012.3
20260507080011 10 0 0.0 0.0 0.00 0.00 0.00 77 1012.4
20260507075512 10 0 0.0 0.0 0.00 0.00 0.00 72 1012.2
20260507075011 10 0 0.0 0.0 0.00 0.00 0.00 73 1012.2
20260507074512 10 0 0.0 0.0 0.00 0.00 0.00 73 1012.3
20260507074011 10 0 0.0 0.0 0.00 0.00 0.00 76 1012.2
20260507073513 10 0 0.0 0.0 0.00 0.00 0.00 74 1012.2
20260507073012 10 0 0.0 0.0 0.00 0.00 0.00 71 1012.2
20260507072511 10 0 0.0 0.0 0.00 0.00 0.00 72 1012.3
20260507072012 10 294 0.0 0.0 0.00 0.00 0.00 73 1012.3
20260507071512 10 0 0.0 0.0 0.00 0.00 0.00 77 1012.3
20260507071013 10 325 0.0 0.0 0.00 0.00 0.00 77 1012.2
20260507070512 10 0 0.0 0.0 0.00 0.00 0.00 76 1012.2
20260507070014 10 0 0.0 0.0 0.00 0.00 0.00 78 1012.3
20260507065512 10 0 0.0 0.0 0.00 0.00 0.00 76 1012.1
20260507065012 10 0 0.0 0.0 0.00 0.00 0.00 77 1012.1
20260507064512 10 0 0.0 0.0 0.00 0.00 0.00 79 1012.2
20260507064012 11 0 0.0 0.0 0.00 0.00 0.00 81 1012.3
20260507063511 11 0 0.0 0.0 0.00 0.00 0.00 77 1012.3
20260507063012 11 0 0.0 0.0 0.00 0.00 0.00 75 1012.3
20260507062512 11 0 0.0 0.0 0.00 0.00 0.00 76 1012.4
20260507062012 11 0 0.0 0.0 0.00 0.00 0.00 75 1012.4
20260507061511 11 0 0.0 0.0 0.00 0.00 0.00 75 1012.4
20260507061011 11 143 0.0 1.6 0.00 0.00 0.00 74 1012.3
20260507060511 11 323 0.0 0.0 0.00 0.00 0.00 74 1012.4
20260507060012 11 315 1.6 3.2 0.00 0.00 0.00 73 1012.5
20260507055511 11 0 0.0 0.0 0.00 0.00 0.00 73 1012.5
20260507055012 11 0 0.0 0.0 0.00 0.00 0.00 73 1012.4
20260507054512 11 322 3.2 3.2 0.00 0.00 0.00 72 1012.4
20260507054012 11 288 0.0 3.2 0.00 0.00 0.00 73 1012.3
20260507053512 11 291 1.6 4.8 0.00 0.00 0.00 73 1012.3
20260507053011 11 305 0.0 3.2 0.00 0.00 0.00 72 1012.4
20260507052511 11 5 1.6 4.8 0.00 0.00 0.00 73 1012.2
20260507052013 11 75 0.0 3.2 0.00 0.00 0.00 74 1012.1
20260507051512 11 313 1.6 4.8 0.00 0.00 0.00 73 1012.2
20260507051011 11 329 1.6 3.2 0.00 0.00 0.00 74 1012.2
20260507050512 11 0 0.0 0.0 0.00 0.00 0.00 75 1012.1
20260507050011 11 0 0.0 0.0 0.00 0.00 0.00 75 1012.1
20260507045512 12 334 0.0 1.6 0.00 0.00 0.00 74 1012.1
20260507045013 11 296 1.6 3.2 0.00 0.00 0.00 74 1012.2
20260507044511 12 0 0.0 0.0 0.00 0.00 0.00 75 1012.1
20260507044011 12 319 1.6 3.2 0.00 0.00 0.00 75 1012.2
20260507043512 12 55 0.0 1.6 0.00 0.00 0.00 76 1012.3
20260507043012 12 0 0.0 0.0 0.00 0.00 0.00 76 1012.3
20260507042513 12 0 0.0 0.0 0.00 0.00 0.00 76 1012.2
20260507042012 12 81 0.0 3.2 0.00 0.00 0.00 76 1012.1
20260507041513 12 126 0.0 3.2 0.00 0.00 0.00 75 1012.1
20260507041012 12 0 0.0 0.0 0.00 0.00 0.00 76 1012.1
20260507040512 12 259 0.0 3.2 0.00 0.00 0.00 75 1012.3
20260507040013 12 329 0.0 3.2 0.00 0.00 0.53 76 1012.3
20260507035511 12 305 1.6 4.8 0.00 0.00 0.53 76 1012.2
20260507035011 12 232 1.6 3.2 0.00 0.00 0.53 76 1012.2
20260507034520 12 302 1.6 3.2 0.00 0.00 0.53 76 1012.5
20260507034011 12 231 0.0 1.6 0.00 0.00 0.53 77 1012.4
20260507033511 12 0 0.0 0.0 0.00 0.00 0.53 78 1012.3
20260507033012 12 323 3.2 8.0 0.00 0.00 0.53 77 1012.5
20260507032511 12 0 0.0 0.0 0.00 0.00 0.53 77 1012.4
20260507032013 12 39 0.0 3.2 0.00 0.00 0.53 77 1012.0
20260507031511 12 0 0.0 0.0 0.00 0.00 0.53 77 1011.9
20260507031012 12 240 0.0 3.2 0.00 0.00 0.53 76 1012.0
20260507030512 12 333 3.2 6.4 0.00 0.00 0.53 75 1012.2
20260507030012 12 265 1.6 6.4 0.00 0.00 0.53 75 1012.3
20260507025512 12 79 3.2 6.4 0.00 0.00 0.53 75 1012.1
20260507025011 12 340 0.0 3.2 0.00 0.00 0.53 75 1012.2
20260507024511 12 316 0.0 0.0 0.00 0.00 0.53 75 1012.2
20260507024012 12 331 1.6 4.8 0.00 0.00 0.53 75 1012.1
20260507023512 12 347 1.6 6.4 0.00 0.00 0.53 75 1012.2
20260507023012 12 268 0.0 1.6 0.00 0.00 0.53 76 1012.2
20260507022513 12 317 1.6 4.8 0.00 0.00 0.53 76 1012.0
20260507022012 12 344 0.0 3.2 0.00 0.00 0.53 76 1011.8
20260507021512 12 316 0.0 4.8 0.00 0.00 0.53 76 1011.8
20260507021011 12 296 3.2 6.4 0.00 0.00 0.53 75 1012.1
20260507020511 12 316 4.8 8.0 0.00 0.00 0.53 76 1012.3
20260507020012 12 31 0.0 3.2 0.00 0.00 0.53 77 1011.9
20260507015513 12 320 3.2 6.4 0.00 0.00 0.53 77 1012.6
20260507015011 12 322 3.2 4.8 0.00 0.00 0.53 78 1012.3
20260507014513 12 339 0.0 3.2 0.00 0.00 0.53 78 1012.1
20260507014012 12 325 3.2 4.8 0.00 0.00 0.53 80 1011.8
20260507013512 13 306 1.6 4.8 0.00 0.00 0.53 80 1011.8
20260507013012 13 355 3.2 4.8 0.00 0.00 0.53 80 1011.5
20260507012512 13 313 1.6 3.2 0.00 0.00 0.53 79 1011.7
20260507012011 13 344 4.8 8.0 0.00 0.00 0.53 79 1011.6
20260507011512 13 329 6.4 9.7 0.00 0.00 0.53 78 1011.8
20260507011012 13 328 1.6 6.4 0.00 0.00 0.53 79 1011.7
20260507010512 13 322 4.8 6.4 0.00 0.00 0.53 79 1011.8
20260507010011 13 292 6.4 8.0 0.00 0.00 0.53 79 1011.6
20260507005511 13 294 1.6 4.8 0.00 0.00 0.53 79 1011.5
20260507005012 13 323 4.8 8.0 0.00 0.00 0.53 79 1011.3
20260507004511 13 338 8.0 12.9 0.00 0.00 0.53 78 1011.5
20260507004013 13 314 4.8 12.9 0.00 0.00 0.53 79 1011.7
20260507003511 13 301 6.4 9.7 0.00 0.00 0.53 79 1012.0
20260507003012 13 329 6.4 11.3 0.00 0.00 0.53 78 1011.8
20260507002511 13 348 4.8 9.7 0.00 0.00 0.53 78 1011.5
20260507002012 13 318 1.6 6.4 0.00 0.00 0.53 78 1011.3
20260507001512 13 355 4.8 8.0 0.00 0.00 0.53 77 1011.5
20260507001011 13 329 3.2 4.8 0.00 0.00 0.53 77 1011.5
20260507000512 14 308 4.8 8.0 0.00 0.00 0.53 77 1011.3
20260507000012 14 325 4.8 6.4 0.00 0.00 0.53 77 1011.3
20260506235512 14 336 1.6 6.4 0.00 0.00 0.53 77 1011.1
20260506235012 14 313 6.4 9.7 0.00 0.00 0.53 76 1011.2
20260506234512 15 279 1.6 6.4 0.00 0.00 0.53 76 1011.2
20260506234013 15 350 4.8 8.0 0.00 0.00 0.53 76 1011.2
20260506233511 15 309 3.2 6.4 0.00 0.00 0.53 76 1011.2
20260506233011 15 317 3.2 6.4 0.00 0.00 0.53 76 1010.7
20260506232514 15 323 1.6 4.8 0.00 0.00 0.53 76 1010.3
20260506232011 15 290 3.2 4.8 0.00 0.00 0.53 75 1010.3
20260506231511 15 290 4.8 6.4 0.00 0.00 0.53 76 1010.1
20260506231011 15 322 3.2 4.8 0.00 0.00 0.53 75 1010.1
20260506230512 15 313 4.8 9.7 0.00 0.00 0.53 75 1010.0
20260506230014 15 284 3.2 6.4 0.00 0.00 0.53 74 1010.1
20260506225511 16 287 4.8 8.0 0.00 0.00 0.53 75 1010.1
20260506225011 16 295 6.4 11.3 0.00 0.00 0.53 74 1010.1
20260506224512 16 293 4.8 9.7 0.00 0.00 0.53 74 1010.1
20260506224011 16 323 4.8 8.0 0.00 0.00 0.53 73 1010.0
20260506223511 16 306 4.8 9.7 0.00 0.00 0.53 74 1010.0
20260506223012 16 325 6.4 9.7 0.00 0.00 0.53 73 1010.2
20260506222511 16 320 3.2 4.8 0.00 0.00 0.53 75 1010.1
20260506222012 16 310 3.2 4.8 0.00 0.00 0.53 74 1010.0
20260506221511 16 326 6.4 11.3 0.00 0.00 0.53 74 1009.8
20260506221012 16 327 8.0 12.9 0.00 0.00 0.53 75 1009.8
20260506220511 17 316 3.2 6.4 0.00 0.00 0.53 76 1009.7
20260506220012 17 300 4.8 9.7 0.00 0.00 0.53 76 1009.6
20260506215512 17 317 4.8 8.0 0.00 0.00 0.53 77 1009.6
20260506215011 17 335 4.8 8.0 0.00 0.00 0.53 76 1009.4
20260506214518 17 330 8.0 12.9 0.00 0.00 0.53 75 1009.4
20260506214012 17 324 4.8 8.0 0.00 0.00 0.53 77 1009.1
20260506213512 17 336 3.2 6.4 0.00 0.00 0.53 78 1009.1
20260506213012 17 322 4.8 6.4 0.00 0.00 0.53 78 1009.3
20260506212511 17 298 3.2 6.4 0.00 0.00 0.53 77 1009.2
20260506212012 17 277 1.6 3.2 0.00 0.00 0.53 79 1009.1
20260506211512 17 291 1.6 3.2 0.00 0.00 0.53 78 1009.1
20260506211011 17 315 3.2 6.4 0.00 0.00 0.53 78 1009.1
20260506210512 18 304 4.8 6.4 0.00 0.00 0.53 78 1008.9
20260506210012 18 309 4.8 6.4 0.00 0.00 0.53 78 1008.8
20260506205515 18 327 3.2 6.4 0.00 0.00 0.53 78 1008.7
20260506204546 18 321 3.2 8.0 0.00 0.00 0.53 81 1008.5
20260506204011 18 322 3.2 6.4 0.00 0.00 0.53 81 1008.4
20260506203511 18 343 3.2 6.4 0.00 0.00 0.53 82 1008.3
20260506203012 18 254 6.4 11.3 0.00 0.00 0.53 82 1008.3
20260506202511 18 279 0.0 3.2 0.00 0.00 0.53 84 1008.4
20260506202011 18 261 4.8 6.4 0.00 0.00 0.53 83 1008.4
20260506201512 18 279 3.2 3.2 0.00 0.00 0.53 84 1008.5
20260506201012 18 276 3.2 4.8 0.00 0.00 0.53 85 1008.3
20260506200512 18 329 0.0 1.6 0.00 0.00 0.53 85 1008.3
20260506200012 19 284 0.0 3.2 0.00 0.00 0.53 82 1008.2
20260506195512 19 262 1.6 3.2 0.00 0.00 0.53 81 1008.1
20260506195012 19 283 1.6 3.2 0.00 0.00 0.53 81 1008.0
20260506194511 19 236 1.6 3.2 0.00 0.00 0.53 84 1008.0
20260506194012 19 250 1.6 3.2 0.00 0.00 0.53 82 1008.0
20260506193512 20 247 3.2 4.8 0.00 0.00 0.53 84 1008.0
20260506193012 19 344 0.0 1.6 0.00 0.00 0.53 85 1007.9
20260506192513 18 0 0.0 0.0 0.00 0.00 0.53 87 1008.0
20260506192012 18 83 0.0 3.2 0.00 0.00 0.53 89 1008.0
20260506191512 18 266 1.6 3.2 0.00 0.00 0.53 89 1008.1
20260506191012 18 164 0.0 3.2 0.00 0.00 0.53 88 1008.2
20260506190512 18 91 3.2 3.2 0.00 0.00 0.53 88 1008.2
20260506190012 18 0 0.0 0.0 0.00 0.00 0.53 89 1008.2
20260506185512 18 212 0.0 3.2 0.00 0.00 0.53 89 1008.2
20260506185012 18 0 0.0 0.0 0.00 0.00 0.53 90 1008.2
20260506184511 18 115 0.0 3.2 0.00 0.00 0.53 90 1008.2
20260506184011 18 163 0.0 4.8 0.00 0.00 0.53 91 1008.2
20260506183511 17 0 0.0 0.0 0.00 0.00 0.53 90 1008.2
20260506183012 17 307 0.0 1.6 0.00 0.00 0.53 91 1008.3
20260506182512 17 0 0.0 0.0 0.00 0.00 0.53 91 1008.4
20260506182011 17 261 3.2 4.8 0.00 0.00 0.53 92 1008.5
20260506181024 17 168 0.0 3.2 0.00 0.00 0.53 92 1008.4
20260506180511 17 260 3.2 3.2 0.00 0.00 0.53 91 1008.5
20260506180012 17 185 0.0 3.2 0.00 0.00 0.53 90 1008.5
20260506175512 17 258 3.2 4.8 0.00 0.00 0.53 91 1008.5
20260506175012 17 12 0.0 4.8 0.00 0.00 0.53 93 1008.5
20260506174512 16 311 0.0 1.6 0.00 0.00 0.53 94 1008.4
20260506174012 16 235 3.2 6.4 0.00 0.00 0.53 93 1008.6
20260506173512 16 259 3.2 4.8 0.00 0.00 0.53 93 1008.6
20260506173013 16 230 3.2 3.2 0.00 0.00 0.53 92 1008.6
20260506172512 17 256 1.6 3.2 0.00 0.00 0.53 91 1008.6
20260506172012 16 281 0.0 3.2 0.00 0.00 0.53 92 1008.6
20260506171512 16 274 0.0 1.6 0.00 0.00 0.53 91 1008.6
20260506171019 16 286 1.6 3.2 0.00 0.00 0.53 92 1008.5
20260506170512 16 281 0.0 1.6 0.00 0.00 0.53 90 1008.4
20260506170012 16 279 0.0 3.2 0.00 0.00 0.53 90 1008.4
20260506165512 16 0 0.0 0.0 0.00 0.00 0.53 90 1008.3
20260506165012 16 0 0.0 0.0 0.00 0.00 0.53 92 1008.2